Regional Weather Roundup
Issued by NWS

Home | Current Version | Previous Version | Text Only | Print | Product List | Glossary Off
Versions: 1 2 3 4 5 6 7 8 9 10 11 12 13 14 15 16 17 18 19 20 21 22 23 24 25 26 27 28 29 30 31 32 33 34 35 36 37 38 39 40 41 42 43 44 45 46 47 48 49 50

000
ASUS43 KDTX 230201
RWRMI
MICHIGAN HOURLY REGIONAL WEATHER ROUNDUP
NATIONAL WEATHER SERVICE DETROIT/PONTIAC MI
1000 PM EDT SUN OCT 22 2017

NOTE: "FAIR" INDICATES FEW OR NO CLOUDS BELOW 12,000 FEET WITH NO
SIGNIFICANT WEATHER AND/OR OBSTRUCTION TO VISIBILITY.

MIZ047>049-052>055-059>063-066>070-074>076-081>083-230300-
SOUTHEAST LOWER MICHIGAN

CITY           SKY/WX    TMP DP  RH WIND       PRES   REMARKS
ADRIAN         CLOUDY    68  51  54 S13       30.05S
ALMA           CLOUDY    66  61  82 SW5       29.98S
ANN ARBOR      CLOUDY    68  52  56 SE8       30.04S
BAD AXE        CLOUDY    68  53  60 S14G22    30.00F
CARO           CLOUDY    69  53  57 S10       29.99S
DETROIT CITY   CLOUDY    70  50  49 S16G22    30.05S
DETROIT        CLOUDY    67  53  61 S10       30.06S
FLINT          CLOUDY    70  53  54 S13       30.01S
GROSSE ILE     CLOUDY    63  57  82 S8        30.05S
HILLSDALE      MOCLDY    68  52  56 S12G18    30.03S
HOWELL         CLOUDY    70  53  54 S10       30.02R

CITY           SKY/WX    TMP DP  RH WIND       PRES   REMARKS
JACKSON        CLOUDY    70  53  54 SE12G22   30.02S
LAMBERTVILLE   CLOUDY    71  47  43 S6        30.05S
LANSING        CLOUDY    72  54  53 S15G23    29.99S
LAPEER         FAIR      67  52  59 S9        30.03S
MASON          CLOUDY    71  54  55 S10G18    30.00S
MONROE         CLOUDY    69  49  49 S9        30.05S
MT. CLEMENS    MOCLDY    63  57  82 S12       30.04S
PONTIAC        CLOUDY    69  53  56 S12G18    30.03S
PORT HOPE        N/A     69  55  60 S13G18    29.98F
PORT HURON     MOCLDY    66  54  63 SE7       30.06S
TRI CITIES     CLOUDY    71  57  61 S14       29.98S
MIDLAND        CLOUDY    70  59  67 SW3       29.96S
TROY           PTCLDY    71  51  50 S14G21    30.06F
SAGINAW HB     CLOUDY    72  54  53 S13G20    29.97F
$$
MIZ043>046-050>051-056>058-064>065-071>073-077>080-230300-
SOUTHWEST LOWER MICHIGAN

CITY           SKY/WX    TMP DP  RH WIND       PRES   REMARKS
BATTLE CREEK   CLOUDY    68  61  78 SW5       30.00S
BENTON HARBOR  CLOUDY    57  54  89 VRB5      30.01S
BIG RAPIDS     LGT RAIN  53  51  94 NW6       30.00S
COLDWATER      CLOUDY    69  52  54 S13G18    30.00S
FREMONT        RAIN      52  52 100 N6        30.01S
HOLLAND        CLOUDY    56  53  90 N7        30.01R
GRAND RAPIDS   CLOUDY    62  61  96 SW7       29.99R
IONIA          CLOUDY    65  62  90 W6        29.98S
KALAMAZOO      CLOUDY    67  60  78 SW7       30.00R
LUDINGTON      DRIZZLE   51  50  97 CALM      30.01S
MARSHALL       MOCLDY    70  55  58 S10       29.99S
MOUNT PLEASANT CLOUDY    67  63  87 SW6       29.97S
MUSKEGON       LGT RAIN  53  52  96 N8        30.02S FOG
SOUTH HAVEN    LGT RAIN  57  55  94 N5        30.01S
$$
MIZ016>042-230300-
NORTHERN LOWER MICHIGAN

CITY           SKY/WX    TMP DP  RH WIND       PRES   REMARKS
ALPENA         LGT RAIN  58  57  97 W6        29.99R
BEAVER ISLAND  LGT RAIN  51  50  97 CALM      30.01R
BELLAIRE       RAIN      52  50  95 CALM      30.01S
CADILLAC       HVY RAIN  52  49  90 N3        30.01S
CHARLEVOIX     RAIN      52  52 100 NW5       30.04R
FRANKFORT      DRIZZLE   53  53 100 CALM      30.01F
GAYLORD        LGT RAIN  50  49  96 CALM      30.00F
GRAYLING       DRIZZLE   52  50  92 CALM      30.01S
HARBOR SPRINGS LGT RAIN  52  50  94 E5        29.99F
HOUGHTON LAKE  LGT RAIN  53  51  93 NW5       30.01R
MANISTEE       LGT RAIN  51  51 100 CALM      30.01F
OSCODA         CLOUDY    69  55  61 S13G20    29.96S
PELLSTON       LGT RAIN  52  51  97 SE5       29.98F FOG
ROGERS CITY    LGT RAIN  52  51  95 NW10      30.00R
TRAVERSE CITY  LGT RAIN  53  51  93 CALM      30.00F
$$
MIZ007>008-015-230300-
EASTERN UPPER MICHIGAN

CITY           SKY/WX    TMP DP  RH WIND       PRES   REMARKS
KINROSS        RAIN      50  50 100 CALM      29.97S FOG
MACKINAC ISLAN LGT RAIN  52  52 100 CALM      29.98F
NEWBERRY       CLOUDY    48  47  97 SW3       29.98R
S. S. MARIE    RAIN      51  49  92 SW5       29.97R FOG
MUNISING         N/A     50  50 100 S6        29.98S
$$
MIZ004>006-011>014-085-230300-
CENTRAL UPPER MICHIGAN

CITY           SKY/WX    TMP DP  RH WIND       PRES   REMARKS
MANISTIQUE     RAIN      49  43  81 W3        30.00R
ESCANABA       CLOUDY    50  48  93 W6        30.01S
SAWYER-GWINN   CLEAR     46  45  93 S7        29.99R
$$
MIZ001>003-009>011-084-230300-
WESTERN UPPER MICHIGAN

CITY           SKY/WX    TMP DP  RH WIND       PRES   REMARKS
IRON MOUNTAIN  CLOUDY    46  43  89 S3        29.99S
HOUGHTON       CLOUDY    48  38  68 SW6       29.93R
COPPER HARBOR    N/A     50  41  71 SW8       29.92F
IRONWOOD       CLEAR     46  39  76 S10       29.94S
$$

ABBREVIATIONS USED IN REMARKS
   TC - TEMPERATURE IN CELSIUS
  WCI - WIND CHILL INDEX
   HX - HEAT INDEX
  VSB - VISIBILITY





USA.gov is the U.S. government's official web portal to all federal, state and local government web resources and services.